| time (UTC) | temp F | wind direction | speed knots | gust knots | rain 1hr in | rain 24hr in | rain mn in | humidity % | barometer mb |
| 20260505184006 | 56 | 245 | 1.7 | 6.1 | 0.00 | 0.00 | 0.00 | 82 | 1016.8 |
| 20260505183507 | 57 | 272 | 0.9 | 3.5 | 0.00 | 0.00 | 0.00 | 81 | 1016.8 |
| 20260505183027 | 57 | 261 | 1.7 | 3.5 | 0.00 | 0.00 | 0.00 | 81 | 1016.7 |
| 20260505182516 | 56 | 271 | 0.9 | 3.5 | 0.00 | 0.00 | 0.00 | 82 | 1016.7 |
| 20260505182014 | 56 | 242 | 1.7 | 5.2 | 0.00 | 0.00 | 0.00 | 82 | 1016.7 |
| 20260505181524 | 56 | 256 | 1.7 | 6.1 | 0.00 | 0.00 | 0.00 | 81 | 1016.7 |
| 20260505181009 | 56 | 263 | 2.6 | 6.1 | 0.00 | 0.00 | 0.00 | 81 | 1016.6 |
| 20260505180508 | 56 | 234 | 1.7 | 5.2 | 0.00 | 0.00 | 0.00 | 81 | 1016.7 |
| 20260505180026 | 56 | 231 | 2.6 | 5.2 | 0.00 | 0.00 | 0.00 | 80 | 1016.7 |
| 20260505175511 | 56 | 225 | 2.6 | 5.2 | 0.00 | 0.00 | 0.00 | 81 | 1016.6 |
| 20260505175012 | 56 | 240 | 3.5 | 5.2 | 0.00 | 0.00 | 0.00 | 80 | 1016.6 |
| 20260505174512 | 56 | 263 | 2.6 | 5.2 | 0.00 | 0.00 | 0.00 | 81 | 1016.6 |
| 20260505174006 | 56 | 257 | 2.6 | 5.2 | 0.00 | 0.00 | 0.00 | 81 | 1016.6 |
| 20260505173509 | 56 | 240 | 2.6 | 6.1 | 0.00 | 0.00 | 0.00 | 81 | 1016.6 |
| 20260505173017 | 56 | 228 | 2.6 | 6.1 | 0.00 | 0.00 | 0.00 | 81 | 1016.5 |
| 20260505172505 | 56 | 275 | 1.7 | 4.3 | 0.00 | 0.00 | 0.00 | 82 | 1016.5 |
| 20260505172009 | 55 | 270 | 1.7 | 4.3 | 0.00 | 0.00 | 0.00 | 82 | 1016.5 |
| 20260505171521 | 55 | 281 | 1.7 | 2.6 | 0.00 | 0.00 | 0.00 | 82 | 1016.5 |
| 20260505171009 | 55 | 274 | 1.7 | 2.6 | 0.00 | 0.00 | 0.00 | 82 | 1016.4 |
| 20260505170509 | 55 | 283 | 1.7 | 3.5 | 0.00 | 0.00 | 0.00 | 83 | 1016.3 |
| 20260505170028 | 55 | 273 | 1.7 | 3.5 | 0.00 | 0.00 | 0.00 | 83 | 1016.4 |
| 20260505165509 | 55 | 267 | 1.7 | 3.5 | 0.00 | 0.00 | 0.00 | 83 | 1016.4 |
| 20260505165008 | 55 | 217 | 0.9 | 3.5 | 0.00 | 0.00 | 0.00 | 83 | 1016.3 |
| 20260505164526 | 55 | 274 | 1.7 | 3.5 | 0.00 | 0.00 | 0.00 | 83 | 1016.3 |
| 20260505164014 | 55 | 271 | 1.7 | 3.5 | 0.00 | 0.00 | 0.00 | 82 | 1016.3 |
| 20260505163507 | 55 | 239 | 1.7 | 3.5 | 0.00 | 0.00 | 0.00 | 82 | 1016.3 |
| 20260505163017 | 55 | 237 | 1.7 | 3.5 | 0.00 | 0.00 | 0.00 | 83 | 1016.2 |
| 20260505162505 | 55 | 227 | 1.7 | 3.5 | 0.00 | 0.00 | 0.00 | 83 | 1016.2 |
| 20260505162007 | 55 | 253 | 0.9 | 2.6 | 0.00 | 0.00 | 0.00 | 83 | 1016.2 |
| 20260505161519 | 55 | 254 | 1.7 | 3.5 | 0.00 | 0.00 | 0.00 | 82 | 1016.2 |
| 20260505161007 | 55 | 254 | 1.7 | 3.5 | 0.00 | 0.00 | 0.00 | 82 | 1016.1 |
| 20260505160514 | 55 | 252 | 0.9 | 2.6 | 0.00 | 0.00 | 0.00 | 83 | 1016.1 |
| 20260505153026 | 55 | 208 | 1.7 | 4.3 | 0.00 | 0.00 | 0.00 | 83 | 1015.8 |
| 20260505152509 | 55 | 256 | 0.9 | 4.3 | 0.00 | 0.00 | 0.00 | 83 | 1015.8 |
| 20260505152016 | 55 | 259 | 1.7 | 4.3 | 0.00 | 0.00 | 0.00 | 82 | 1015.8 |
| 20260505151518 | 55 | 250 | 1.7 | 3.5 | 0.00 | 0.00 | 0.00 | 82 | 1015.8 |
| 20260505151012 | 55 | 227 | 1.7 | 4.3 | 0.00 | 0.00 | 0.00 | 82 | 1015.6 |
| 20260505150516 | 55 | 259 | 1.7 | 4.3 | 0.00 | 0.00 | 0.00 | 82 | 1015.6 |
| 20260505140507 | 54 | 244 | 3.5 | 7.0 | 0.00 | 0.00 | 0.00 | 82 | 1015.2 |
| 20260505125004 | 54 | 256 | 1.7 | 6.1 | 0.00 | 0.00 | 0.00 | 84 | 1014.3 |
| 20260505124501 | 54 | 177 | 2.6 | 5.2 | 0.00 | 0.01 | 0.00 | 84 | 1014.3 |
| 20260505124005 | 54 | 211 | 0.9 | 6.1 | 0.00 | 0.01 | 0.00 | 84 | 1014.3 |
| 20260505123504 | 54 | 246 | 2.6 | 6.1 | 0.00 | 0.01 | 0.00 | 84 | 1014.3 |
| 20260505123007 | 54 | 235 | 2.6 | 6.1 | 0.00 | 0.01 | 0.00 | 84 | 1014.3 |
| 20260505122508 | 54 | 222 | 2.6 | 6.1 | 0.00 | 0.01 | 0.00 | 84 | 1014.2 |
| 20260505122004 | 54 | 240 | 2.6 | 5.2 | 0.00 | 0.01 | 0.00 | 83 | 1014.2 |
| 20260505121514 | 54 | 238 | 2.6 | 5.2 | 0.00 | 0.01 | 0.00 | 83 | 1014.2 |
| 20260505121007 | 54 | 233 | 3.5 | 5.2 | 0.00 | 0.01 | 0.00 | 83 | 1014.1 |
| 20260505120511 | 54 | 229 | 1.7 | 5.2 | 0.00 | 0.01 | 0.00 | 83 | 1014.1 |
| 20260505120030 | 54 | 226 | 2.6 | 5.2 | 0.00 | 0.01 | 0.00 | 83 | 1014.1 |
| 20260505115508 | 54 | 232 | 2.6 | 5.2 | 0.00 | 0.01 | 0.00 | 83 | 1014.1 |
| 20260505115010 | 54 | 236 | 2.6 | 6.1 | 0.00 | 0.01 | 0.00 | 83 | 1014.1 |
| 20260505114523 | 54 | 173 | 2.6 | 7.0 | 0.00 | 0.01 | 0.00 | 83 | 1014.1 |
| 20260505114007 | 54 | 230 | 4.3 | 7.0 | 0.00 | 0.01 | 0.00 | 83 | 1014.1 |
| 20260505113503 | 54 | 252 | 3.5 | 7.8 | 0.00 | 0.01 | 0.00 | 83 | 1014.0 |
| 20260505113006 | 54 | 221 | 2.6 | 7.8 | 0.00 | 0.01 | 0.00 | 83 | 1014.1 |
| 20260505112504 | 54 | 223 | 3.5 | 6.1 | 0.00 | 0.01 | 0.00 | 83 | 1014.1 |
| 20260505112009 | 54 | 242 | 2.6 | 7.0 | 0.00 | 0.01 | 0.00 | 83 | 1014.1 |
| 20260505111515 | 54 | 223 | 2.6 | 8.7 | 0.00 | 0.01 | 0.00 | 83 | 1014.0 |
| 20260505111005 | 54 | 212 | 3.5 | 9.6 | 0.00 | 0.01 | 0.00 | 83 | 1014.0 |
| 20260505110505 | 54 | 249 | 6.1 | 9.6 | 0.00 | 0.01 | 0.00 | 83 | 1014.1 |
| 20260505102004 | 54 | 235 | 3.5 | 7.8 | 0.00 | 0.01 | 0.00 | 84 | 1013.8 |
| 20260505101511 | 54 | 240 | 4.3 | 8.7 | 0.00 | 0.01 | 0.00 | 84 | 1013.8 |
| 20260505101010 | 54 | 218 | 4.3 | 8.7 | 0.00 | 0.01 | 0.00 | 84 | 1013.8 |
| 20260505100506 | 54 | 242 | 3.5 | 7.8 | 0.00 | 0.01 | 0.00 | 84 | 1013.7 |
| 20260505100014 | 54 | 240 | 4.3 | 7.8 | 0.00 | 0.01 | 0.00 | 84 | 1013.7 |
| 20260505095505 | 54 | 262 | 3.5 | 7.8 | 0.00 | 0.01 | 0.00 | 84 | 1013.7 |
| 20260505095006 | 54 | 258 | 4.3 | 7.0 | 0.00 | 0.01 | 0.00 | 84 | 1013.7 |
| 20260505094521 | 54 | 247 | 3.5 | 7.0 | 0.00 | 0.01 | 0.00 | 84 | 1013.7 |
| 20260505094011 | 54 | 217 | 3.5 | 7.8 | 0.00 | 0.01 | 0.00 | 84 | 1013.7 |
| 20260505093510 | 54 | 221 | 4.3 | 7.8 | 0.00 | 0.01 | 0.00 | 84 | 1013.6 |
| 20260505093023 | 54 | 221 | 5.2 | 10.4 | 0.00 | 0.01 | 0.00 | 84 | 1013.6 |
| 20260505092513 | 54 | 217 | 6.1 | 10.4 | 0.00 | 0.01 | 0.00 | 84 | 1013.5 |
| 20260505092005 | 54 | 262 | 4.3 | 10.4 | 0.00 | 0.01 | 0.00 | 84 | 1013.5 |
| 20260505091507 | 54 | 223 | 4.3 | 8.7 | 0.00 | 0.01 | 0.00 | 84 | 1013.5 |
| 20260505091005 | 54 | 207 | 5.2 | 8.7 | 0.00 | 0.01 | 0.00 | 84 | 1013.5 |
| 20260505090505 | 54 | 227 | 4.3 | 9.6 | 0.00 | 0.01 | 0.00 | 84 | 1013.5 |
| 20260505090017 | 54 | 264 | 7.0 | 9.6 | 0.00 | 0.01 | 0.00 | 84 | 1013.4 |
| 20260505085506 | 54 | 236 | 5.2 | 8.7 | 0.00 | 0.01 | 0.00 | 84 | 1013.3 |
| 20260505085007 | 54 | 209 | 3.5 | 7.8 | 0.00 | 0.01 | 0.00 | 84 | 1013.3 |
| 20260505084516 | 54 | 211 | 3.5 | 8.7 | 0.00 | 0.01 | 0.00 | 84 | 1013.2 |
| 20260505084011 | 54 | 244 | 5.2 | 8.7 | 0.00 | 0.01 | 0.00 | 84 | 1013.4 |
| 20260505083512 | 54 | 261 | 3.5 | 8.7 | 0.00 | 0.01 | 0.00 | 84 | 1013.2 |
| 20260505083022 | 54 | 224 | 4.3 | 10.4 | 0.00 | 0.01 | 0.00 | 84 | 1013.2 |
| 20260505082513 | 54 | 227 | 4.3 | 10.4 | 0.00 | 0.01 | 0.00 | 84 | 1013.2 |
| 20260505082010 | 54 | 246 | 5.2 | 8.7 | 0.00 | 0.01 | 0.00 | 84 | 1013.3 |
| 20260505081522 | 54 | 257 | 5.2 | 10.4 | 0.00 | 0.01 | 0.00 | 84 | 1013.2 |
| 20260505081007 | 54 | 186 | 4.3 | 10.4 | 0.00 | 0.01 | 0.00 | 85 | 1013.3 |
| 20260505080506 | 54 | 213 | 3.5 | 7.8 | 0.00 | 0.01 | 0.00 | 85 | 1013.3 |
| 20260505080006 | 54 | 244 | 2.6 | 7.8 | 0.00 | 0.01 | 0.00 | 85 | 1013.2 |
| 20260505075509 | 54 | 215 | 4.3 | 7.8 | 0.00 | 0.01 | 0.00 | 85 | 1013.2 |
| 20260505075012 | 54 | 218 | 4.3 | 7.0 | 0.00 | 0.01 | 0.00 | 85 | 1013.1 |
| 20260505074512 | 54 | 222 | 2.6 | 8.7 | 0.00 | 0.01 | 0.00 | 85 | 1013.1 |
| 20260505074008 | 54 | 232 | 4.3 | 8.7 | 0.00 | 0.01 | 0.00 | 85 | 1013.0 |
| 20260505073511 | 54 | 219 | 3.5 | 7.0 | 0.00 | 0.01 | 0.00 | 85 | 1013.0 |
| 20260505073020 | 54 | 244 | 4.3 | 9.6 | 0.00 | 0.01 | 0.00 | 85 | 1012.8 |
| 20260505072505 | 54 | 267 | 4.3 | 9.6 | 0.00 | 0.01 | 0.00 | 84 | 1012.6 |
| 20260505072008 | 54 | 259 | 6.1 | 9.6 | 0.00 | 0.01 | 0.00 | 85 | 1012.5 |
| 20260505071530 | 54 | 225 | 3.5 | 8.7 | 0.00 | 0.01 | 0.00 | 84 | 1012.5 |
| 20260505071010 | 54 | 215 | 5.2 | 8.7 | 0.00 | 0.01 | 0.00 | 84 | 1012.6 |
| 20260505070509 | 54 | 246 | 3.5 | 7.8 | 0.00 | 0.01 | 0.00 | 84 | 1012.7 |
| 20260505070027 | 54 | 232 | 3.5 | 7.8 | 0.00 | 0.01 | 0.00 | 84 | 1012.6 |
| 20260505065503 | 54 | 240 | 4.3 | 7.0 | 0.00 | 0.01 | 0.01 | 84 | 1012.5 |
| 20260505065005 | 54 | 229 | 2.6 | 5.2 | 0.00 | 0.01 | 0.01 | 84 | 1012.5 |
| 20260505064510 | 54 | 216 | 3.5 | 5.2 | 0.00 | 0.01 | 0.01 | 84 | 1012.4 |
| 20260505064006 | 54 | 210 | 2.6 | 7.0 | 0.00 | 0.01 | 0.01 | 83 | 1012.4 |
| 20260505063506 | 55 | 255 | 3.5 | 7.0 | 0.00 | 0.01 | 0.01 | 83 | 1012.3 |
| 20260505063018 | 55 | 236 | 3.5 | 6.1 | 0.00 | 0.01 | 0.01 | 83 | 1012.3 |
| 20260505062509 | 55 | 224 | 3.5 | 6.1 | 0.00 | 0.01 | 0.01 | 83 | 1012.3 |
| 20260505062008 | 55 | 200 | 1.7 | 6.1 | 0.00 | 0.01 | 0.01 | 83 | 1012.3 |
| 20260505061523 | 55 | 204 | 2.6 | 5.2 | 0.00 | 0.01 | 0.01 | 83 | 1012.1 |
| 20260505061011 | 55 | 229 | 2.6 | 5.2 | 0.00 | 0.01 | 0.01 | 82 | 1012.0 |
| 20260505060510 | 55 | 222 | 2.6 | 6.1 | 0.00 | 0.01 | 0.01 | 82 | 1012.0 |
| 20260505060040 | 55 | 225 | 3.5 | 6.1 | 0.00 | 0.01 | 0.01 | 82 | 1012.0 |
| 20260505055518 | 55 | 248 | 2.6 | 5.2 | 0.00 | 0.01 | 0.01 | 82 | 1011.9 |
| 20260505055015 | 55 | 204 | 3.5 | 5.2 | 0.00 | 0.01 | 0.01 | 82 | 1011.9 |
| 20260505054513 | 55 | 218 | 2.6 | 5.2 | 0.00 | 0.01 | 0.01 | 82 | 1011.8 |
| 20260505054011 | 55 | 236 | 2.6 | 6.1 | 0.00 | 0.01 | 0.01 | 81 | 1011.9 |
| 20260505053507 | 56 | 229 | 2.6 | 6.1 | 0.00 | 0.01 | 0.01 | 81 | 1012.0 |
| 20260505053016 | 56 | 240 | 3.5 | 6.1 | 0.00 | 0.01 | 0.01 | 81 | 1012.0 |
| 20260505052510 | 56 | 235 | 3.5 | 6.1 | 0.00 | 0.01 | 0.01 | 81 | 1012.0 |
| 20260505052006 | 56 | 236 | 2.6 | 4.3 | 0.00 | 0.01 | 0.01 | 81 | 1011.9 |
| 20260505051525 | 56 | 248 | 0.9 | 3.5 | 0.00 | 0.01 | 0.01 | 81 | 1011.9 |
| 20260505051006 | 56 | 267 | 1.7 | 6.1 | 0.00 | 0.01 | 0.01 | 81 | 1011.8 |
| 20260505050510 | 56 | 219 | 2.6 | 7.8 | 0.00 | 0.01 | 0.01 | 81 | 1011.7 |
| 20260505041522 | 58 | 232 | 7.8 | 13.9 | 0.00 | 0.01 | 0.01 | 77 | 1011.3 |
| 20260505041010 | 58 | 219 | 8.7 | 14.8 | 0.00 | 0.01 | 0.01 | 76 | 1011.2 |
| 20260505040510 | 58 | 250 | 7.8 | 14.8 | 0.00 | 0.01 | 0.01 | 75 | 1011.1 |
| 20260505040025 | 59 | 238 | 7.0 | 12.2 | 0.00 | 0.01 | 0.01 | 74 | 1011.0 |
| 20260505035506 | 60 | 244 | 7.0 | 11.3 | 0.00 | 0.01 | 0.01 | 73 | 1010.9 |
| 20260505035008 | 60 | 224 | 6.1 | 9.6 | 0.00 | 0.01 | 0.01 | 72 | 1010.9 |
| 20260505034526 | 60 | 242 | 5.2 | 10.4 | 0.00 | 0.01 | 0.01 | 72 | 1010.8 |
| 20260505034010 | 61 | 228 | 7.0 | 11.3 | 0.00 | 0.01 | 0.01 | 71 | 1010.7 |
| 20260505033510 | 61 | 227 | 7.0 | 11.3 | 0.00 | 0.01 | 0.01 | 70 | 1010.6 |
| 20260505033027 | 62 | 223 | 7.0 | 11.3 | 0.00 | 0.01 | 0.01 | 69 | 1010.7 |
| 20260505032507 | 62 | 235 | 5.2 | 10.4 | 0.00 | 0.01 | 0.01 | 69 | 1010.6 |
| 20260505032007 | 63 | 227 | 6.1 | 9.6 | 0.00 | 0.01 | 0.01 | 68 | 1010.5 |
| 20260505031514 | 63 | 267 | 5.2 | 9.6 | 0.00 | 0.01 | 0.01 | 67 | 1010.5 |
| 20260505031007 | 64 | 231 | 3.5 | 9.6 | 0.00 | 0.01 | 0.01 | 67 | 1010.3 |
| 20260505030509 | 64 | 240 | 4.3 | 10.4 | 0.00 | 0.01 | 0.01 | 66 | 1010.3 |
| 20260505030020 | 64 | 246 | 5.2 | 10.4 | 0.00 | 0.01 | 0.01 | 65 | 1010.3 |
| 20260505025515 | 64 | 222 | 4.3 | 7.0 | 0.00 | 0.01 | 0.01 | 66 | 1010.2 |
| 20260505025007 | 65 | 254 | 3.5 | 7.0 | 0.00 | 0.01 | 0.01 | 65 | 1010.2 |
| 20260505024522 | 65 | 269 | 4.3 | 8.7 | 0.00 | 0.01 | 0.01 | 65 | 1010.1 |
| 20260505024007 | 66 | 242 | 4.3 | 8.7 | 0.00 | 0.01 | 0.01 | 63 | 1010.1 |
| 20260505023508 | 67 | 271 | 4.3 | 8.7 | 0.00 | 0.01 | 0.01 | 62 | 1010.1 |
| 20260505023027 | 67 | 213 | 4.3 | 8.7 | 0.00 | 0.01 | 0.01 | 61 | 1010.1 |
| 20260505022510 | 67 | 221 | 4.3 | 8.7 | 0.00 | 0.01 | 0.01 | 61 | 1010.0 |
| 20260505022008 | 68 | 271 | 4.3 | 9.6 | 0.00 | 0.01 | 0.01 | 60 | 1010.0 |
| 20260505021516 | 68 | 250 | 4.3 | 9.6 | 0.00 | 0.01 | 0.01 | 60 | 1010.0 |
| 20260505021007 | 68 | 221 | 5.2 | 11.3 | 0.00 | 0.01 | 0.01 | 59 | 1010.0 |
| 20260505020507 | 68 | 258 | 5.2 | 11.3 | 0.00 | 0.01 | 0.01 | 60 | 1009.9 |
| 20260505020021 | 69 | 229 | 5.2 | 10.4 | 0.00 | 0.01 | 0.01 | 58 | 1009.9 |
| 20260505015510 | 70 | 248 | 5.2 | 11.3 | 0.00 | 0.01 | 0.01 | 57 | 1009.9 |
| 20260505015007 | 70 | 238 | 5.2 | 11.3 | 0.00 | 0.01 | 0.01 | 57 | 1009.9 |
| 20260505014524 | 70 | 262 | 7.0 | 11.3 | 0.00 | 0.01 | 0.01 | 56 | 1009.9 |
| 20260505014015 | 70 | 227 | 5.2 | 9.6 | 0.00 | 0.01 | 0.01 | 57 | 1009.8 |
| 20260505013512 | 70 | 276 | 5.2 | 7.8 | 0.00 | 0.01 | 0.01 | 58 | 1009.8 |
| 20260505013026 | 69 | 228 | 3.5 | 7.8 | 0.00 | 0.01 | 0.01 | 60 | 1009.9 |
| 20260505012507 | 70 | 236 | 4.3 | 7.8 | 0.00 | 0.01 | 0.01 | 57 | 1009.8 |
| 20260505012010 | 70 | 277 | 2.6 | 5.2 | 0.00 | 0.01 | 0.01 | 57 | 1009.9 |
| 20260505011528 | 70 | 269 | 2.6 | 7.8 | 0.00 | 0.01 | 0.01 | 58 | 1009.8 |
| 20260505011008 | 71 | 266 | 3.5 | 7.8 | 0.00 | 0.01 | 0.01 | 56 | 1009.9 |
| 20260505010510 | 71 | 276 | 3.5 | 7.8 | 0.00 | 0.01 | 0.01 | 55 | 1009.9 |
| 20260505010016 | 72 | 264 | 2.6 | 7.0 | 0.00 | 0.01 | 0.01 | 55 | 1009.9 |
| 20260505005508 | 72 | 257 | 1.7 | 7.0 | 0.00 | 0.01 | 0.01 | 55 | 1009.9 |
| 20260505005010 | 73 | 263 | 1.7 | 7.0 | 0.00 | 0.01 | 0.01 | 53 | 1009.9 |
| 20260505004526 | 73 | 275 | 2.6 | 7.0 | 0.00 | 0.01 | 0.01 | 52 | 1009.8 |
| 20260505004006 | 74 | 297 | 3.5 | 7.0 | 0.00 | 0.01 | 0.01 | 53 | 1009.8 |
| 20260505003514 | 75 | 257 | 2.6 | 6.1 | 0.00 | 0.01 | 0.01 | 52 | 1009.8 |
| 20260505003024 | 75 | 273 | 2.6 | 6.1 | 0.00 | 0.01 | 0.01 | 51 | 1009.8 |
| 20260505002512 | 75 | 290 | 1.7 | 5.2 | 0.00 | 0.01 | 0.01 | 52 | 1009.7 |
| 20260505002007 | 75 | 267 | 2.6 | 5.2 | 0.00 | 0.01 | 0.01 | 52 | 1009.8 |
| 20260505001527 | 75 | 267 | 3.5 | 5.2 | 0.00 | 0.01 | 0.01 | 50 | 1009.7 |
| 20260505001010 | 75 | 254 | 2.6 | 6.1 | 0.00 | 0.01 | 0.01 | 52 | 1009.7 |
| 20260505000508 | 74 | 280 | 3.5 | 6.1 | 0.00 | 0.01 | 0.01 | 52 | 1009.8 |
| 20260505000023 | 75 | 283 | 2.6 | 6.1 | 0.00 | 0.01 | 0.01 | 51 | 1009.8 |
| 20260504235507 | 75 | 273 | 2.6 | 6.1 | 0.00 | 0.01 | 0.01 | 52 | 1009.8 |
| 20260504235008 | 74 | 269 | 2.6 | 6.1 | 0.00 | 0.01 | 0.01 | 52 | 1009.7 |
| 20260504234521 | 75 | 275 | 2.6 | 6.1 | 0.00 | 0.01 | 0.01 | 53 | 1009.7 |
| 20260504234012 | 75 | 260 | 2.6 | 6.1 | 0.00 | 0.01 | 0.01 | 51 | 1009.7 |
| 20260504233512 | 76 | 275 | 1.7 | 5.2 | 0.00 | 0.01 | 0.01 | 50 | 1009.8 |
| 20260504233026 | 75 | 229 | 2.6 | 7.0 | 0.00 | 0.01 | 0.01 | 51 | 1009.8 |
| 20260504232511 | 75 | 256 | 2.6 | 7.0 | 0.00 | 0.01 | 0.01 | 52 | 1009.8 |
| 20260504232015 | 75 | 268 | 2.6 | 5.2 | 0.00 | 0.01 | 0.01 | 53 | 1009.8 |
| 20260504231528 | 74 | 265 | 1.7 | 7.8 | 0.00 | 0.01 | 0.01 | 54 | 1009.9 |
| 20260504231010 | 75 | 255 | 2.6 | 7.8 | 0.00 | 0.01 | 0.01 | 52 | 1009.9 |
| 20260504230508 | 75 | 253 | 4.3 | 7.8 | 0.00 | 0.01 | 0.01 | 52 | 1010.0 |
| 20260504230029 | 75 | 254 | 4.3 | 7.0 | 0.00 | 0.01 | 0.01 | 52 | 1010.0 |
| 20260504225510 | 75 | 265 | 4.3 | 7.8 | 0.00 | 0.01 | 0.01 | 52 | 1010.2 |
| 20260504225012 | 75 | 256 | 2.6 | 8.7 | 0.00 | 0.01 | 0.01 | 52 | 1010.2 |
| 20260504224521 | 75 | 255 | 5.2 | 8.7 | 0.00 | 0.01 | 0.01 | 51 | 1010.3 |
| 20260504224007 | 75 | 266 | 1.7 | 6.1 | 0.00 | 0.01 | 0.01 | 53 | 1010.3 |
| 20260504223507 | 75 | 270 | 1.7 | 6.1 | 0.00 | 0.01 | 0.01 | 53 | 1010.3 |
| 20260504223024 | 74 | 278 | 2.6 | 7.0 | 0.00 | 0.01 | 0.01 | 54 | 1010.3 |
| 20260504222511 | 73 | 271 | 4.3 | 7.0 | 0.00 | 0.01 | 0.01 | 53 | 1010.4 |
| 20260504222012 | 74 | 332 | 2.6 | 7.0 | 0.00 | 0.01 | 0.01 | 53 | 1010.5 |
| 20260504221528 | 74 | 264 | 1.7 | 6.1 | 0.00 | 0.01 | 0.01 | 53 | 1010.4 |
| 20260504221009 | 74 | 273 | 1.7 | 6.1 | 0.00 | 0.01 | 0.01 | 53 | 1010.5 |
| 20260504220511 | 73 | 297 | 1.7 | 6.1 | 0.00 | 0.01 | 0.01 | 55 | 1010.5 |
| 20260504220038 | 73 | 274 | 2.6 | 5.2 | 0.00 | 0.01 | 0.01 | 54 | 1010.6 |
| 20260504215508 | 73 | 277 | 1.7 | 6.1 | 0.00 | 0.01 | 0.01 | 55 | 1010.6 |
| 20260504215012 | 73 | 284 | 3.5 | 6.1 | 0.00 | 0.01 | 0.01 | 54 | 1010.7 |
| 20260504214528 | 72 | 279 | 1.7 | 6.1 | 0.00 | 0.01 | 0.01 | 55 | 1010.8 |
| 20260504214014 | 73 | 287 | 2.6 | 5.2 | 0.00 | 0.01 | 0.01 | 55 | 1010.7 |
| 20260504213508 | 73 | 286 | 2.6 | 6.1 | 0.00 | 0.01 | 0.01 | 55 | 1010.8 |
| 20260504213025 | 72 | 275 | 2.6 | 6.1 | 0.00 | 0.01 | 0.01 | 55 | 1010.8 |
| 20260504212506 | 72 | 298 | 0.9 | 5.2 | 0.00 | 0.01 | 0.01 | 56 | 1010.9 |
| 20260504212010 | 71 | 279 | 1.7 | 5.2 | 0.00 | 0.01 | 0.01 | 57 | 1010.9 |
| 20260504211533 | 72 | 290 | 0.9 | 5.2 | 0.00 | 0.01 | 0.01 | 56 | 1010.8 |
| 20260504211009 | 71 | 283 | 1.7 | 6.1 | 0.00 | 0.01 | 0.01 | 58 | 1010.9 |
| 20260504210508 | 71 | 277 | 2.6 | 6.1 | 0.00 | 0.01 | 0.01 | 57 | 1010.9 |
| 20260504210026 | 70 | 266 | 2.6 | 6.1 | 0.00 | 0.01 | 0.01 | 56 | 1011.0 |
| 20260504205514 | 70 | 269 | 2.6 | 7.8 | 0.00 | 0.01 | 0.01 | 58 | 1011.1 |
| 20260504205010 | 70 | 261 | 3.5 | 7.8 | 0.00 | 0.01 | 0.01 | 57 | 1011.1 |
| 20260504204529 | 70 | 248 | 2.6 | 6.1 | 0.00 | 0.01 | 0.01 | 58 | 1011.2 |
| 20260504204009 | 70 | 274 | 2.6 | 6.1 | 0.00 | 0.01 | 0.01 | 59 | 1011.1 |
| 20260504203511 | 69 | 296 | 1.7 | 6.1 | 0.00 | 0.01 | 0.01 | 59 | 1011.1 |
| 20260504203027 | 69 | 283 | 1.7 | 6.1 | 0.00 | 0.01 | 0.01 | 58 | 1011.2 |
| 20260504202509 | 69 | 250 | 3.5 | 6.1 | 0.00 | 0.01 | 0.01 | 58 | 1011.2 |
| 20260504202009 | 69 | 260 | 2.6 | 6.1 | 0.00 | 0.01 | 0.01 | 60 | 1011.2 |
| 20260504201525 | 68 | 254 | 2.6 | 7.0 | 0.00 | 0.01 | 0.01 | 1011.2 | |
| 20260504201010 | 68 | 269 | 2.6 | 7.0 | 0.00 | 0.01 | 0.01 | 1011.2 | |
| 20260504200512 | 68 | 286 | 3.5 | 6.1 | 0.00 | 0.01 | 0.01 | 1011.3 | |
| 20260504200026 | 68 | 298 | 0.9 | 6.1 | 0.00 | 0.01 | 0.01 | 1011.3 | |
| 20260504195509 | 68 | 327 | 3.5 | 7.0 | 0.00 | 0.01 | 0.01 | 60 | 1011.3 |
| 20260504195013 | 68 | 296 | 2.6 | 7.0 | 0.00 | 0.01 | 0.01 | 60 | 1011.2 |
| 20260504194528 | 67 | 267 | 3.5 | 7.0 | 0.00 | 0.01 | 0.01 | 1011.3 | |
| 20260504194009 | 67 | 267 | 3.5 | 7.0 | 0.00 | 0.01 | 0.01 | 1011.3 | |
| 20260504193509 | 67 | 275 | 1.7 | 7.0 | 0.00 | 0.01 | 0.01 | 1011.3 | |
| 20260504193030 | 67 | 264 | 3.5 | 7.0 | 0.00 | 0.01 | 0.01 | 1011.3 | |
| 20260504192508 | 67 | 290 | 2.6 | 6.1 | 0.00 | 0.01 | 0.01 | 1011.3 | |
| 20260504192010 | 67 | 240 | 2.6 | 7.0 | 0.00 | 0.01 | 0.01 | 1011.3 | |
| 20260504191526 | 67 | 296 | 2.6 | 7.0 | 0.00 | 0.01 | 0.01 | 60 | 1011.4 |
| 20260504191003 | 68 | 217 | 3.5 | 7.0 | 0.00 | 0.01 | 0.01 | 60 | 1011.4 |
| 20260504190506 | 68 | 259 | 3.5 | 7.0 | 0.00 | 0.01 | 0.01 | 60 | 1011.4 |
| 20260504190009 | 67 | 277 | 2.6 | 5.2 | 0.00 | 0.01 | 0.01 | 62 | 1011.4 |
| 20260504185508 | 66 | 276 | 1.7 | 7.0 | 0.00 | 0.01 | 0.01 | 1011.5 | |
| 20260504185010 | 66 | 277 | 2.6 | 7.0 | 0.00 | 0.01 | 0.01 | 1011.5 | |
| 20260504184518 | 67 | 273 | 1.7 | 5.2 | 0.00 | 0.01 | 0.01 | 61 | 1011.5 |